Regional Weather Roundup
Issued by NWS Green Bay, WI

Home | Current Version | Previous Version | Text Only | Print | Product List | Glossary On
Versions: 1 2 3 4 5 6 7 8 9 10 11 12 13 14 15 16 17 18 19 20 21 22 23 24 25 26 27 28 29 30 31 32 33 34 35 36 37 38 39 40 41 42 43 44 45 46 47 48 49 50
000
ASUS43 KGRB 220059
RWRGRB

NORTH-CENTRAL AND NORTHEAST WISCONSIN REGIONAL WEATHER ROUNDUP
NATIONAL WEATHER SERVICE GREEN BAY WI
700 PM CST FRI NOV 21 2014

WIZ005-009-010>012-018-019-220200-
NORTH CENTRAL WISCONSIN

CITY           SKY/WX    TMP DP  RH WIND       PRES   REMARKS
IRONWOOD       CLOUDY    27  12  54 SW18G29   29.84F
MANITOWISH WTR NOT AVBL
ARBOR VITAE    NOT AVBL
EAGLE RIVER    NOT AVBL
LAND O LAKES   NOT AVBL
RHINELANDER    MOCLDY    22   5  48 SW17G24   29.99F WCI   8
PHILLIPS       NOT AVBL
ANTIGO         NOT AVBL
TOMAHAWK       NOT AVBL
MERRILL        NOT AVBL
$$

WIZ013-073-220200-
NORTHEAST WISCONSIN

CITY           SKY/WX    TMP DP  RH WIND       PRES   REMARKS
IRON MOUNTAIN  CLOUDY    21   7  54 S12       30.02F WCI   9
MARINETTE      MOCLDY    28  10  47 SW17G25   30.11F
$$

WIZ017-030-035>037-045-220200-
CENTRAL WISCONSIN

CITY           SKY/WX    TMP DP  RH WIND       PRES   REMARKS
MEDFORD        NOT AVBL
WAUSAU         PTCLDY    24   7  48 S12G22    30.04F
MOSINEE        NOT AVBL
MARSHFIELD     PTCLDY    26   9  48 S16       30.05F
WISC RAPIDS    CLEAR     27   7  42 S12       30.11F
STEVENS POINT  NOT AVBL
WAUPACA        NOT AVBL
SHAWANO        NOT AVBL
CLINTONVILLE   NOT AVBL
$$

WIZ038-039-048-051-220200-
FOX VALLEY

CITY           SKY/WX    TMP DP  RH WIND       PRES   REMARKS
NWS GREEN BAY  PTCLDY    29  11  47 S14       30.15F
APPLETON       MOCLDY    27   9  46 S15       30.15F
OSHKOSH        PTCLDY    25  10  53 S14       30.16F
FOND DU LAC    PTCLDY    26   9  48 S15       30.17F
$$

WIZ022-050-052-220200-
EAST CENTRAL WISCONSIN

CITY           SKY/WX    TMP DP  RH WIND       PRES   REMARKS
STURGEON BAY   CLOUDY    28   7  40 S14G23    30.14F
MANITOWOC      NOT AVBL
SHEBOYGAN      PTCLDY    28   6  39 S16       30.21F
$$

LMZ563-521-522-541>543-220200-
LAKESHORE

STATION/POSITION TIME  TEMP    WIND        PRES    VSBY  WAVE
                       AIR SEA DIR/SP/G                  HT/PER
                 (UTC) (F)     (DEG/KT/KT) (MB)    (MI)  (FT/S)
SHEBOYGAN LKSHOR 0000   32 35  200/ 16/ 19 1024.6F
KEWAUNEE LKSHORE 0000   30     200/ 14/ 20 1021.1F
ALGOMA MARINA    0000          230/ 22/ 28   N/A
NORTHPORT PIER   0000   29     180/  5/ 17 1020.7F
N MID LAKE BUOY  0000   35 42  210/ 29/ 37 1021.5F         9/ 7
CHAMBERS ISLAND  0000   30     180/ 12/ 22 1020.3F
MENOMINEE LKSHOR 0000   29     190/ 12/ 19 1020.8F
$$



USA.gov is the U.S. government's official web portal to all federal, state and local government web resources and services.